Location: *
(49.6619°S, 177.4603°W)
Time: 05:54:19
(UTC+00:00)

Cosmos 1898 Rocket - Pass Details

Date: 31 January 2023
Orbit: 752 x 783 km, 74.0° (Epoch: 01 April)

Event Time Altitude Azimuth Distance (km) Brightness Sun altitude
Rises 09:29:08 0° 206° (SSW) 3,299 8.5 -14.8°
Reaches altitude 10° 09:31:34 10° 209° (SSW) 2,360 7.4 -15.0°
Maximum altitude 09:36:53 65° 289° (WNW) 860 3.8 -15.5°
Enters shadow 09:40:23 21° 5° (N) 1,684 4.8 -15.9°
